EN

Hourly Weather Papieze

Today, 8 March, Monday

Time Temperature Precipitation Wind Pressure Humidity
00:00 -4°C° 0.1 mm 6 mps 741 mmHg 90%
01:00 -4°C° 0.1 mm 5 mps 741 mmHg 94%
02:00 -3°C° 0.1 mm 4 mps 742 mmHg 92%
03:00 -2°C° 0.1 mm 3 mps 742 mmHg 90%
04:00 -3°C° 0.1 mm 2 mps 742 mmHg 88%
05:00 -3°C° 0 mm 2 mps 742 mmHg 85%
06:00 -4°C° 0 mm 3 mps 742 mmHg 82%
07:00 -5°C° 0 mm 3 mps 742 mmHg 79%
08:00 -2°C° 0 mm 3 mps 743 mmHg 70%
09:00 -2°C° 0 mm 4 mps 744 mmHg 61%
10:00 -1°C° 0 mm 4 mps 744 mmHg 51%
11:00 -1°C° 0 mm 4 mps 744 mmHg 51%
12:00 0°C° 0 mm 4 mps 744 mmHg 50%
13:00 0°C° 0 mm 4 mps 745 mmHg 49%
14:00 0°C° 0 mm 4 mps 745 mmHg 51%
15:00 0°C° 0 mm 4 mps 745 mmHg 52%
16:00 0°C° 0 mm 4 mps 745 mmHg 54%
17:00 -1°C° 0 mm 3 mps 745 mmHg 59%
18:00 -2°C° 0 mm 3 mps 745 mmHg 65%
19:00 -3°C° 0 mm 2 mps 746 mmHg 70%
20:00 -3°C° 0 mm 2 mps 746 mmHg 72%
21:00 -3°C° 0 mm 2 mps 746 mmHg 74%
22:00 -3°C° 0 mm 2 mps 746 mmHg 76%
23:00 -1°C° 0 mm 1 mps 746 mmHg 77%

Tomorrow, 9 March, Tuesday

Time Temperature Precipitation Wind Pressure Humidity
00:00 -2°C° 0 mm 1 mps 746 mmHg 78%
01:00 -2°C° 0 mm 1 mps 746 mmHg 79%
02:00 -3°C° 0 mm 0 mps 746 mmHg 79%
03:00 -3°C° 0 mm 0 mps 746 mmHg 78%
04:00 -3°C° 0 mm 0 mps 746 mmHg 77%
05:00 -3°C° 0 mm 0 mps 746 mmHg 76%
06:00 -1°C° 0 mm 1 mps 746 mmHg 74%
07:00 -1°C° 0 mm 1 mps 746 mmHg 73%
08:00 -1°C° 0 mm 1 mps 746 mmHg 68%
09:00 0°C° 0 mm 1 mps 746 mmHg 64%
10:00 +1°C° 0 mm 1 mps 746 mmHg 60%
11:00 +1°C° 0 mm 1 mps 746 mmHg 57%
12:00 +2°C° 0 mm 1 mps 746 mmHg 53%
13:00 +2°C° 0 mm 1 mps 746 mmHg 50%
14:00 +2°C° 0 mm 1 mps 745 mmHg 50%
15:00 +2°C° 0 mm 1 mps 745 mmHg 50%
16:00 +2°C° 0 mm 1 mps 745 mmHg 49%
17:00 +1°C° 0 mm 1 mps 745 mmHg 54%
18:00 0°C° 0 mm 1 mps 745 mmHg 59%
19:00 -1°C° 0 mm 1 mps 745 mmHg 63%
20:00 -1°C° 0 mm 1 mps 745 mmHg 66%
21:00 -3°C° 0 mm 2 mps 745 mmHg 68%
22:00 -3°C° 0 mm 2 mps 745 mmHg 70%
23:00 -1°C° 0 mm 1 mps 745 mmHg 70%

Day after tomorrow, 10 March, Wednesday

Time Temperature Precipitation Wind Pressure Humidity
00:00 -1°C° 0 mm 1 mps 745 mmHg 70%
01:00 -1°C° 0 mm 1 mps 745 mmHg 71%
02:00 -1°C° 0 mm 1 mps 745 mmHg 69%
03:00 -2°C° 0 mm 0 mps 745 mmHg 67%
04:00 -2°C° 0 mm 0 mps 745 mmHg 66%
05:00 -2°C° 0 mm 0 mps 745 mmHg 63%
06:00 -2°C° 0 mm 0 mps 745 mmHg 61%
07:00 -1°C° 0 mm 0 mps 745 mmHg 59%
08:00 0°C° 0 mm 0 mps 746 mmHg 54%
09:00 +1°C° 0 mm 0 mps 746 mmHg 50%
10:00 +2°C° 0 mm 0 mps 746 mmHg 46%
11:00 +2°C° 0 mm 0 mps 746 mmHg 44%
12:00 +4°C° 0 mm 1 mps 746 mmHg 42%
13:00 +4°C° 0 mm 1 mps 746 mmHg 40%
14:00 +4°C° 0 mm 1 mps 746 mmHg 40%
15:00 +4°C° 0 mm 1 mps 746 mmHg 41%
16:00 +4°C° 0 mm 1 mps 746 mmHg 41%
17:00 +3°C° 0 mm 1 mps 746 mmHg 45%
18:00 +2°C° 0 mm 1 mps 746 mmHg 49%
19:00 0°C° 0 mm 1 mps 746 mmHg 52%
20:00 0°C° 0 mm 1 mps 746 mmHg 53%
21:00 0°C° 0 mm 1 mps 746 mmHg 54%
22:00 -2°C° 0 mm 2 mps 747 mmHg 55%
23:00 -2°C° 0 mm 2 mps 746 mmHg 56%

11 March, Thursday

Time Temperature Precipitation Wind Pressure Humidity
00:00 -3°C° 0 mm 2 mps 746 mmHg 58%
01:00 -4°C° 0 mm 3 mps 746 mmHg 59%
02:00 -4°C° 0 mm 3 mps 745 mmHg 59%
03:00 -3°C° 0 mm 4 mps 744 mmHg 58%
04:00 -3°C° 0 mm 4 mps 744 mmHg 58%
05:00 -3°C° 0 mm 4 mps 743 mmHg 56%
06:00 -2°C° 0 mm 5 mps 743 mmHg 55%
07:00 -3°C° 0 mm 6 mps 743 mmHg 53%
08:00 -2°C° 0 mm 6 mps 742 mmHg 52%
09:00 -1°C° 0 mm 7 mps 741 mmHg 51%
10:00 0°C° 0 mm 7 mps 741 mmHg 50%
11:00 0°C° 0.2 mm 7 mps 740 mmHg 63%
12:00 0°C° 0.2 mm 8 mps 739 mmHg 76%
13:00 -1°C° 0.2 mm 8 mps 739 mmHg 89%
14:00 -1°C° 0.9 mm 8 mps 738 mmHg 90%
15:00 -1°C° 0.9 mm 7 mps 737 mmHg 92%
16:00 -1°C° 0.9 mm 7 mps 736 mmHg 93%
17:00 0°C° 1.5 mm 7 mps 736 mmHg 93%
18:00 0°C° 1.5 mm 7 mps 735 mmHg 93%
19:00 +2°C° 1.5 mm 7 mps 735 mmHg 93%
20:00 +1°C° 0.6 mm 8 mps 735 mmHg 91%
21:00 +2°C° 0.6 mm 8 mps 735 mmHg 89%
22:00 +2°C° 0.6 mm 8 mps 735 mmHg 87%
23:00 +3°C° 0.1 mm 7 mps 735 mmHg 88%

12 March, Friday

Time Temperature Precipitation Wind Pressure Humidity
00:00 +3°C° 0.1 mm 6 mps 735 mmHg 90%
01:00 +3°C° 0.1 mm 6 mps 735 mmHg 91%
02:00 +3°C° 0 mm 6 mps 735 mmHg 90%
03:00 +2°C° 0 mm 5 mps 735 mmHg 90%
04:00 +2°C° 0 mm 5 mps 736 mmHg 89%
05:00 +2°C° 0 mm 6 mps 736 mmHg 87%
06:00 +2°C° 0 mm 6 mps 736 mmHg 86%
07:00 +2°C° 0 mm 6 mps 736 mmHg 84%
08:00 +3°C° 0.1 mm 7 mps 737 mmHg 78%
09:00 +4°C° 0.1 mm 8 mps 737 mmHg 72%
10:00 +5°C° 0.1 mm 9 mps 737 mmHg 66%
11:00 +6°C° 0.1 mm 9 mps 737 mmHg 62%
12:00 +6°C° 0.1 mm 9 mps 738 mmHg 59%
13:00 +6°C° 0.1 mm 9 mps 738 mmHg 55%
14:00 +6°C° 0 mm 8 mps 738 mmHg 55%
15:00 +6°C° 0 mm 7 mps 738 mmHg 55%
16:00 +6°C° 0 mm 7 mps 738 mmHg 54%
17:00 +5°C° 0 mm 6 mps 738 mmHg 59%
18:00 +5°C° 0 mm 5 mps 738 mmHg 64%
19:00 +4°C° 0 mm 4 mps 738 mmHg 69%
20:00 +3°C° 0 mm 4 mps 738 mmHg 71%
21:00 +3°C° 0 mm 4 mps 738 mmHg 73%
22:00 +2°C° 0 mm 5 mps 738 mmHg 75%
23:00 +2°C° 0 mm 5 mps 738 mmHg 75%

13 March, Saturday

Time Temperature Precipitation Wind Pressure Humidity
00:00 +1°C° 0 mm 5 mps 738 mmHg 76%
01:00 +1°C° 0 mm 5 mps 738 mmHg 76%
02:00 +1°C° 0 mm 5 mps 737 mmHg 78%
03:00 +1°C° 0 mm 5 mps 737 mmHg 79%
04:00 +1°C° 0 mm 5 mps 737 mmHg 80%
05:00 +1°C° 0 mm 6 mps 737 mmHg 79%
06:00 +1°C° 0 mm 6 mps 736 mmHg 79%
07:00 +1°C° 0 mm 6 mps 736 mmHg 78%
08:00 +3°C° 0 mm 7 mps 736 mmHg 74%
09:00 +4°C° 0 mm 7 mps 737 mmHg 70%
10:00 +5°C° 0 mm 7 mps 737 mmHg 66%
11:00 +6°C° 0 mm 7 mps 736 mmHg 63%
12:00 +7°C° 0 mm 6 mps 736 mmHg 61%
13:00 +8°C° 0 mm 6 mps 736 mmHg 59%
14:00 +8°C° 0 mm 6 mps 735 mmHg 59%
15:00 +8°C° 0 mm 6 mps 735 mmHg 59%
16:00 +8°C° 0 mm 5 mps 734 mmHg 60%
17:00 +7°C° 0 mm 5 mps 734 mmHg 64%
18:00 +6°C° 0 mm 5 mps 734 mmHg 68%
19:00 +6°C° 0 mm 5 mps 734 mmHg 73%
20:00 +5°C° 0 mm 5 mps 734 mmHg 75%
21:00 +4°C° 0 mm 6 mps 734 mmHg 77%
22:00 +4°C° 0 mm 6 mps 733 mmHg 79%
23:00 +4°C° 0 mm 6 mps 733 mmHg 80%
Show more

We Need Your Consent

Meteoprog and our Service Providers may store and access personal data such as cookies, device identifiers or other similar technologies on your device and process such data to personalise content and ads, as well as provide social media features and to analyse the traffic.

  • Store and/or access information on your device

    Cookies, device identifiers or other information can be stored or accessed on your device for the purposes indicated above.

  • Personalised ads and content, ad and content measurement, audience insights, and products development

    Ads and content can be personalised based on a profile. More data can be added to better personalise ads and content. Ad and content performance can be measured. Insights about the audience who saw the ads and content can be derived. Such data can be used to develop or improve user’s experience, systems and software.

By clicking ‘I Agree’ you will allow the use of indicated cookies, device identifiers, web beacons or other similar technologies. Your settings can be changed in the browser on your device.

For certain purposes, legitimate interests may be relied on, rather than consent. You can read more about this in our Privacy and Cookie Policy.